Вернуться в каталог

STARLINK-1420

АктивенСвязьVLEO
NORAD 45695·PAYLOAD·🇺🇸 United States

Запущен Jun 4, 2020 с Cape Canaveral Space Force Station

Loading…

Ближайшие Пролёты (ближайшие 24 часа)

TLE

СвежийSource: CelesTrak SupGP

Эпоха: Sep 15, 2026, 01:46 UTC

1 45695C 20035AQ  26258.07409722  .00148410  00000+0  58638-3 0  2581
2 45695  53.0364 166.2034 0005902  99.4429 212.5008 15.85971379    11

Отслеживайте STARLINK-1420 в реальном времени с AllMySat

Download on the App Store